TimePST,TemperatureF,Dew PointF,Humidity,Sea Level PressureIn,VisibilityMPH,Wind Direction,Wind SpeedMPH,Gust SpeedMPH,PrecipitationIn,Events,Conditions,WindDirDegrees,DateUTC
12:53 AM,46.0,43.0,89,30.26,10.0,Calm,Calm,-,N/A,,Clear,0,2013-03-02 08:53:00
1:53 AM,46.9,45.0,93,30.26,10.0,Calm,Calm,-,N/A,,Clear,0,2013-03-02 09:53:00
2:53 AM,46.9,44.1,90,30.23,10.0,Calm,Calm,-,N/A,,Clear,0,2013-03-02 10:53:00
3:53 AM,46.0,43.0,89,30.22,10.0,Calm,Calm,-,N/A,,Clear,0,2013-03-02 11:53:00
4:53 AM,46.0,43.0,89,30.22,10.0,Calm,Calm,-,N/A,,Clear,0,2013-03-02 12:53:00
5:53 AM,45.0,42.1,90,30.23,10.0,Calm,Calm,-,N/A,,Clear,0,2013-03-02 13:53:00
6:53 AM,45.0,43.0,93,30.22,10.0,Calm,Calm,-,N/A,,Clear,0,2013-03-02 14:53:00
7:53 AM,51.1,46.9,86,30.23,10.0,Calm,Calm,-,N/A,,Clear,0,2013-03-02 15:53:00
8:53 AM,57.9,46.9,67,30.24,10.0,NNE,3.5,-,N/A,,Clear,20,2013-03-02 16:53:00
9:53 AM,62.1,46.9,58,30.23,10.0,NNE,4.6,-,N/A,,Clear,20,2013-03-02 17:53:00
10:53 AM,64.9,48.0,54,30.22,10.0,NNE,3.5,-,N/A,,Clear,30,2013-03-02 18:53:00
11:53 AM,68.0,48.9,50,30.19,10.0,NNE,6.9,-,N/A,,Clear,30,2013-03-02 19:53:00
12:53 PM,68.0,48.0,49,30.16,10.0,Variable,3.5,-,N/A,,Clear,0,2013-03-02 20:53:00
1:53 PM,69.1,48.0,47,30.13,10.0,Calm,Calm,-,N/A,,Clear,0,2013-03-02 21:53:00
2:53 PM,69.1,48.0,47,30.12,10.0,Calm,Calm,-,N/A,,Clear,0,2013-03-02 22:53:00
3:53 PM,68.0,48.9,50,30.09,10.0,Calm,Calm,-,N/A,,Clear,0,2013-03-02 23:53:00
4:53 PM,66.0,50.0,56,30.08,10.0,Calm,Calm,-,N/A,,Clear,0,2013-03-03 00:53:00
5:53 PM,63.0,51.1,65,30.08,10.0,Calm,Calm,-,N/A,,Clear,0,2013-03-03 01:53:00
6:53 PM,62.1,51.1,67,30.09,10.0,SW,3.5,-,N/A,,Clear,220,2013-03-03 02:53:00
7:53 PM,63.0,51.1,65,30.08,10.0,South,4.6,-,N/A,,Clear,180,2013-03-03 03:53:00
8:53 PM,63.0,51.1,65,30.08,10.0,SW,3.5,-,N/A,,Overcast,230,2013-03-03 04:53:00
9:53 PM,63.0,48.9,60,30.08,10.0,SW,5.8,-,N/A,,Mostly Cloudy,220,2013-03-03 05:53:00
10:53 PM,62.1,48.9,62,30.07,10.0,South,9.2,-,N/A,,Partly Cloudy,190,2013-03-03 06:53:00
11:53 PM,60.1,48.0,64,30.07,10.0,South,6.9,-,N/A,,Scattered Clouds,180,2013-03-03 07:53:00